[[{"header":{"parameterUnit":"m.s-1","parameterCategory":1,"la1":30.2991,"la2":30.254,"lo1":-89.0895,"lo2":-89.0444,"dy":0.0017,"dx":0.0017,"nx":28,"ny":28,"refTime":"2024-02-18T09:00:00:Z","depth":0,"parameterNumber":2,"parameterNumberName":"U-component_of_WINDS"},"data":[0,0,0,0,0,0,0,0,0,0,0,0,0,0,0,0,0,0,0,0,0,0,0,0,0,0,0,0,0,0,0,0,0,0,0,0,0,0,0,0,0,0,0,0,0,0,0,0,0,0,0,0,0,0,0,0,0,0,-1.2862,-1.2863,0,-1.2939,-1.294,-1.2941,-1.2915,-1.2913,-1.2911,-1.291,-1.2991,-1.2994,-1.2998,0,0,0,0,0,0,0,0,0,0,0,0,0,-1.2693,-1.2696,-1.2862,-1.2863,-1.2864,-1.2939,-1.294,-1.2941,-1.2915,-1.2913,-1.2911,-1.2909,-1.299,-1.2994,-1.2998,0,0,0,0,0,0,0,0,0,0,0,0,0,-1.2768,-1.2697,-1.2862,-1.286,-1.286,-1.2939,-1.294,-1.2942,-1.2915,-1.2913,-1.291,-1.2908,-1.2988,-1.2994,-1.2999,-1.3085,0,0,-1.3016,-1.3019,0,0,0,0,0,0,0,0,-1.2764,-1.2774,-1.2859,-1.286,-1.2861,-1.2915,-1.291,-1.299,-1.2916,-1.2895,-1.291,-1.2907,-1.2968,-1.2975,-1.2995,-1.3089,-1.3092,-1.3017,-1.302,-1.3023,-1.3024,0,0,0,0,0,0,0,-1.2759,-1.2771,-1.2893,-1.2861,-1.2862,-1.2855,-1.2863,-1.2925,-1.2945,-1.2896,-1.2895,-1.2904,-1.2968,-1.299,-1.2997,-1.3093,-1.3017,-1.3022,-1.3025,-1.3027,-1.3261,-1.3264,0,0,0,0,0,0,-1.2753,-1.2767,-1.289,-1.2895,-1.2805,-1.2861,-1.2869,-1.29,-1.2944,-1.2948,-1.2906,-1.2902,-1.2981,-1.299,-1.2999,-1.3103,-1.3022,-1.3028,-1.3031,-1.3258,-1.3261,-1.3265,0,0,0,0,0,0,-1.2749,-1.2764,-1.2887,-1.283,-1.2846,-1.2866,-1.2901,-1.2903,-1.2925,-1.2951,-1.2955,-1.2925,-1.298,-1.2991,-1.3064,-1.3105,-1.303,-1.3035,-1.3255,-1.3259,-1.3263,-1.3311,0,0,0,0,0,0,-1.2745,-1.2763,-1.2796,-1.2831,-1.2849,-1.295,-1.2903,-1.2906,-1.2934,-1.293,-1.297,-1.2974,-1.2978,-1.3055,-1.3069,-1.3112,-1.304,-1.3251,-1.3257,-1.3262,-1.3306,-1.3316,-1.3325,0,0,0,0,0,-1.2739,-1.2807,-1.2797,-1.2813,-1.289,-1.2952,-1.2962,-1.2966,-1.2938,-1.2971,-1.2988,-1.2973,-1.3098,-1.3063,-1.3078,-1.3123,-1.3248,-1.3255,-1.3261,-1.3301,-1.3314,-1.3325,0,0,0,0,0,0,-1.2776,-1.2811,-1.2802,-1.2883,-1.2915,-1.2948,-1.299,-1.2979,-1.302,-1.3015,-1.3018,-1.3027,-1.3101,-1.3119,-1.3079,-1.3208,-1.3169,-1.3179,-1.3194,-1.3207,-1.3216,-1.3211,-1.3044,0,0,0,0,0,-1.2794,-1.2841,-1.2869,-1.2938,-1.2955,-1.297,-1.2997,-1.2997,-1.303,-1.3044,-1.3066,-1.3099,-1.3146,-1.3177,-1.3222,-1.3307,-1.3316,-1.3346,-1.3355,-1.3363,-1.3372,-1.3419,-1.3433,-1.3286,-1.3285,-1.3285,0,0,-1.2831,-1.2856,-1.2886,-1.2947,-1.2971,-1.3021,-1.2981,-1.3035,-1.3072,-1.3052,-1.3122,-1.3139,-1.3176,-1.3255,-1.3291,-1.3273,-1.3415,-1.3372,-1.3378,-1.3383,-1.3427,-1.3441,-1.3454,-1.329,-1.3289,-1.3288,0,0,-1.2925,-1.2948,-1.3008,-1.3033,-1.3071,-1.308,-1.3094,-1.3129,-1.3139,-1.3209,-1.3194,-1.3238,-1.3319,-1.3346,-1.3371,-1.3473,-1.3461,-1.3487,-1.3539,-1.3585,-1.3597,-1.3607,-1.3644,-1.3658,-1.3496,-1.3496,-1.3496,0,-1.2967,-1.3041,-1.3041,-1.3096,-1.3123,-1.3106,-1.3167,-1.3191,-1.3242,-1.3261,-1.3239,-1.334,-1.3363,-1.3449,-1.3474,-1.3494,-1.3511,-1.3484,-1.3595,-1.3605,-1.3615,-1.3651,-1.3664,-1.3499,-1.3499,-1.3498,-1.3498,0,-1.3091,-1.3142,-1.3186,-1.3234,-1.3266,-1.3324,-1.3334,-1.3366,-1.3362,-1.3374,-1.3445,-1.3472,-1.3522,-1.3542,-1.3539,-1.3627,-1.3614,-1.3593,-1.3554,-1.3632,-1.3666,-1.3679,-1.3503,-1.3502,-1.3501,-1.35,0,0,-1.3213,-1.3259,-1.3275,-1.3297,-1.3336,-1.3376,-1.3433,-1.3481,-1.3509,-1.3543,-1.3592,-1.366,-1.364,-1.3668,-1.3668,-1.3708,-1.3788,-1.3682,-1.3683,-1.3702,-1.3887,-1.3904,-1.392,-1.3779,-1.3781,-1.3783,-1.3884,0,-1.331,-1.341,-1.3411,-1.3503,-1.3551,-1.3534,-1.3584,-1.3613,-1.3625,-1.3667,-1.368,-1.3729,-1.3699,-1.3715,-1.3754,-1.377,-1.3825,-1.3762,-1.3825,-1.3827,-1.3818,-1.3937,-1.3955,-1.4049,-1.3897,-1.39,-1.3901,0,-1.3439,-1.3477,-1.3573,-1.3605,-1.3625,-1.367,-1.3713,-1.3754,-1.3787,-1.3792,-1.3822,-1.3816,-1.3874,-1.3832,-1.3912,-1.3869,-1.3895,-1.3906,-1.391,-1.3918,-1.387,-1.3949,-1.4079,-1.4094,-1.3922,-1.392,-1.3919,0,-1.3519,-1.3594,-1.3662,-1.3681,-1.3719,-1.3751,-1.3769,-1.3799,-1.3827,-1.3866,-1.3884,-1.3929,-1.3954,-1.3988,-1.3994,-1.3962,-1.4075,-1.4033,-1.4083,-1.4083,-1.4109,-1.4108,-1.4247,-1.4123,-1.4122,-1.4122,-1.4122,0,-1.363,-1.369,-1.3699,-1.3741,-1.3807,-1.3808,-1.3874,-1.3889,-1.3915,-1.396,-1.3948,-1.399,-1.3994,-1.4037,-1.4042,-1.4109,-1.4119,-1.4126,-1.4127,-1.4129,-1.4128,-1.4147,-1.4141,-1.4126,-1.4125,-1.4124,-1.4124,0,-1.3732,-1.374,-1.3813,-1.3843,-1.3852,-1.39,-1.3925,-1.3965,-1.3975,-1.4032,-1.4045,-1.406,-1.4111,-1.4119,-1.4179,-1.4182,-1.4262,-1.4255,-1.4251,-1.425,-1.43,-1.4296,-1.4457,-1.4479,-1.4339,-1.434,-1.4341,0,-1.3803,-1.3849,-1.3883,-1.3911,-1.393,-1.3977,-1.4005,-1.4007,-1.4038,-1.4078,-1.4113,-1.4162,-1.4201,-1.4283,-1.43,-1.4345,-1.434,-1.4393,-1.4347,-1.4347,-1.4343,-1.434,-1.4345,-1.4403,-1.4405,-1.4406,-1.4407,0,-1.3928,-1.3929,-1.3971,-1.4014,-1.4049,-1.4083,-1.4115,-1.4139,-1.4145,-1.418,-1.4231,-1.4261,-1.4321,-1.437,-1.4415,-1.4433,-1.4422,-1.4421,-1.4435,-1.4438,-1.4434,-1.4438,-1.4277,-1.4418,-1.4417,-1.4416,-1.4415,-1.4415,-1.4018,-1.4058,-1.4088,-1.4135,-1.4159,-1.4189,-1.4228,-1.4242,-1.4284,-1.4333,-1.4331,-1.4387,-1.4418,-1.4477,-1.4498,-1.4542,-1.4525,-1.4545,-1.455,-1.4556,-1.4561,-1.4425,-1.455,-1.4549,-1.4549,-1.4549,-1.4549,0,-1.4143,-1.4161,-1.4204,-1.4249,-1.4286,-1.427,-1.4305,-1.4337,-1.4386,-1.4415,-1.4454,-1.4512,-1.4559,-1.4579,-1.4625,-1.4657,-1.4653,-1.4669,-1.4668,-1.4672,-1.4573,-1.4557,-1.4672,-1.4672,-1.4672,-1.4672,-1.4672,-1.4672,-1.4213,-1.428,-1.4285,-1.4363,-1.4381,-1.4435,-1.4457,-1.4484,-1.4508,-1.4573,-1.4612,-1.4624,-1.465,-1.4697,-1.474,-1.4744,-1.4763,-1.4782,-1.4784,-1.4692,-1.4679,-1.4668,-1.4652,-1.4786,-1.4786,-1.488,-1.4881,-1.4882]},{"header":{"parameterUnit":"m.s-1","parameterCategory":1,"la1":30.2991,"la2":30.254,"lo1":-89.0895,"lo2":-89.0444,"dy":0.0017,"dx":0.0017,"nx":28,"ny":28,"refTime":"2024-02-18T09:00:00:Z","depth":0,"parameterNumber":3,"parameterNumberName":"V-component_of_WINDS"},"data":[0,0,0,0,0,0,0,0,0,0,0,0,0,0,0,0,0,0,0,0,0,0,0,0,0,0,0,0,0,0,0,0,0,0,0,0,0,0,0,0,0,0,0,0,0,0,0,0,0,0,0,0,0,0,0,0,0,0,-7.9507,-7.9509,0,-7.9651,-7.9653,-7.9654,-7.9575,-7.9571,-7.9567,-7.9563,-7.9704,-7.9712,-7.9719,0,0,0,0,0,0,0,0,0,0,0,0,0,-7.9156,-7.9163,-7.9507,-7.9509,-7.951,-7.9651,-7.9653,-7.9655,-7.9576,-7.9571,-7.9566,-7.9561,-7.9702,-7.9711,-7.972,0,0,0,0,0,0,0,0,0,0,0,0,0,-7.9305,-7.9165,-7.9506,-7.9488,-7.9488,-7.965,-7.9653,-7.9655,-7.9577,-7.9571,-7.9565,-7.9559,-7.9699,-7.971,-7.9721,-7.9908,0,0,-7.9755,-7.976,0,0,0,0,0,0,0,0,-7.9297,-7.9318,-7.9489,-7.949,-7.949,-7.9589,-7.9581,-7.974,-7.9578,-7.9543,-7.9563,-7.9556,-7.967,-7.9683,-7.9723,-7.9914,-7.992,-7.9756,-7.9763,-7.9767,-7.9771,0,0,0,0,0,0,0,-7.9286,-7.9311,-7.9564,-7.9491,-7.9492,-7.947,-7.9485,-7.961,-7.9638,-7.9545,-7.954,-7.9558,-7.9669,-7.9713,-7.9726,-7.9923,-7.9756,-7.9765,-7.9772,-7.9777,-8.0273,-8.0279,0,0,0,0,0,0,-7.9278,-7.9303,-7.9559,-7.9568,-7.9377,-7.9481,-7.9498,-7.9563,-7.9636,-7.9642,-7.9563,-7.9554,-7.9697,-7.9713,-7.9731,-7.9954,-7.9767,-7.9778,-7.9784,-8.0266,-8.0274,-8.0281,0,0,0,0,0,0,-7.9271,-7.9302,-7.9553,-7.9434,-7.9465,-7.9494,-7.9568,-7.9569,-7.9612,-7.965,-7.9653,-7.9603,-7.9693,-7.9715,-7.9865,-7.9958,-7.9783,-7.9793,-8.0259,-8.0269,-8.0278,-8.0403,0,0,0,0,0,0,-7.9261,-7.93,-7.9373,-7.9437,-7.9471,-7.9688,-7.9573,-7.9576,-7.9633,-7.9622,-7.9688,-7.9693,-7.969,-7.9848,-7.9876,-7.997,-7.9802,-8.025,-8.0263,-8.0275,-8.039,-8.0415,-8.0437,0,0,0,0,0,-7.9249,-7.9401,-7.9377,-7.9408,-7.9564,-7.9693,-7.9713,-7.9707,-7.964,-7.9713,-7.9737,-7.9691,-7.9943,-7.9864,-7.9894,-7.9993,-8.0244,-8.026,-8.0274,-8.038,-8.0411,-8.0436,0,0,0,0,0,0,-7.9345,-7.9409,-7.9383,-7.9561,-7.9623,-7.9679,-7.9771,-7.974,-7.982,-7.9806,-7.9794,-7.9809,-7.9965,-7.9994,-7.9905,-8.0177,-8.0083,-8.0104,-8.0153,-8.0183,-8.0206,-8.0196,-7.9811,0,0,0,0,0,-7.9388,-7.949,-7.9539,-7.9691,-7.9723,-7.9742,-7.9798,-7.9789,-7.9851,-7.9876,-7.991,-7.9971,-8.0063,-8.0124,-8.0212,-8.0394,-8.0406,-8.0476,-8.05,-8.0519,-8.0537,-8.0634,-8.0666,-8.0329,-8.0329,-8.0329,0,0,-7.9475,-7.9523,-7.9588,-7.9711,-7.9758,-7.9862,-7.9764,-7.9878,-7.9954,-7.9892,-8.0037,-8.0064,-8.013,-8.0297,-8.0372,-8.0325,-8.0633,-8.0537,-8.0552,-8.056,-8.0653,-8.0685,-8.0713,-8.0339,-8.0337,-8.0336,0,0,-7.9689,-7.9735,-7.9867,-7.9916,-7.9988,-8.0,-8.0031,-8.0094,-8.011,-8.0255,-8.021,-8.0299,-8.0459,-8.0508,-8.0554,-8.0785,-8.0745,-8.0813,-8.0935,-8.103,-8.1056,-8.108,-8.1162,-8.1191,-8.0831,-8.0832,-8.0832,0,-7.9788,-7.9945,-7.9938,-8.0056,-8.0111,-8.0061,-8.0193,-8.024,-8.0336,-8.0374,-8.0321,-8.0521,-8.0562,-8.0739,-8.0795,-8.0834,-8.0868,-8.0806,-8.1054,-8.1077,-8.1099,-8.1177,-8.1207,-8.0839,-8.0839,-8.0838,-8.0837,0,-8.0063,-8.0173,-8.027,-8.0367,-8.0432,-8.0557,-8.0566,-8.0633,-8.0617,-8.0633,-8.078,-8.0828,-8.0924,-8.0964,-8.095,-8.1139,-8.1108,-8.1055,-8.096,-8.1139,-8.1212,-8.1241,-8.0851,-8.0848,-8.0845,-8.0844,0,0,-8.0342,-8.0434,-8.047,-8.0513,-8.0588,-8.0671,-8.0792,-8.0888,-8.0945,-8.1012,-8.1112,-8.1249,-8.12,-8.1252,-8.1241,-8.1325,-8.1504,-8.1261,-8.1262,-8.1304,-8.1715,-8.1755,-8.1789,-8.1478,-8.1484,-8.1488,-8.1709,0,-8.0561,-8.0775,-8.0772,-8.0969,-8.1069,-8.1023,-8.1128,-8.1184,-8.1202,-8.1288,-8.1306,-8.1403,-8.1331,-8.1362,-8.1443,-8.1465,-8.1586,-8.1449,-8.1569,-8.1574,-8.1555,-8.1828,-8.187,-8.2077,-8.1737,-8.1742,-8.1746,0,-8.0844,-8.0924,-8.1132,-8.1193,-8.1234,-8.133,-8.1416,-8.1499,-8.1561,-8.1568,-8.1627,-8.1603,-8.1723,-8.1624,-8.1789,-8.1696,-8.1744,-8.1762,-8.177,-8.1781,-8.1671,-8.1846,-8.2142,-8.2173,-8.1791,-8.1787,-8.1784,0,-8.1027,-8.1185,-8.133,-8.1368,-8.1443,-8.1511,-8.1544,-8.1601,-8.1658,-8.1733,-8.177,-8.1857,-8.1905,-8.1971,-8.1971,-8.1899,-8.2137,-8.2038,-8.2144,-8.2145,-8.2197,-8.2194,-8.2505,-8.2228,-8.2228,-8.2227,-8.2227,0,-8.1271,-8.14,-8.1413,-8.1503,-8.1645,-8.1639,-8.1779,-8.1806,-8.1857,-8.1948,-8.1912,-8.1998,-8.1993,-8.2079,-8.2079,-8.2215,-8.2236,-8.2244,-8.2243,-8.2248,-8.2247,-8.2279,-8.2265,-8.2235,-8.2234,-8.2232,-8.2231,0,-8.1499,-8.1514,-8.1669,-8.1727,-8.1744,-8.1847,-8.1895,-8.1979,-8.1993,-8.211,-8.2136,-8.2159,-8.2259,-8.2265,-8.238,-8.2379,-8.2544,-8.2527,-8.2524,-8.2521,-8.2627,-8.2617,-8.2971,-8.3016,-8.2709,-8.2712,-8.2715,0,-8.1655,-8.1753,-8.1822,-8.1883,-8.1921,-8.2018,-8.2077,-8.2073,-8.2135,-8.2213,-8.2287,-8.2384,-8.2461,-8.2623,-8.2648,-8.2735,-8.2719,-8.2837,-8.2732,-8.2734,-8.2721,-8.2715,-8.2724,-8.2857,-8.2861,-8.2864,-8.2866,0,-8.1929,-8.1931,-8.2018,-8.2109,-8.2181,-8.2251,-8.2316,-8.2367,-8.237,-8.2441,-8.2545,-8.2605,-8.2723,-8.2819,-8.2904,-8.2935,-8.2902,-8.2899,-8.2928,-8.2934,-8.2929,-8.2933,-8.258,-8.2891,-8.2888,-8.2886,-8.2885,-8.2884,-8.2125,-8.221,-8.2273,-8.2371,-8.242,-8.2482,-8.2563,-8.2589,-8.2675,-8.2773,-8.2764,-8.2878,-8.2936,-8.3047,-8.3085,-8.3172,-8.3132,-8.3174,-8.3185,-8.3195,-8.3207,-8.2915,-8.3188,-8.3187,-8.3186,-8.3186,-8.3185,0,-8.2397,-8.2435,-8.2526,-8.2619,-8.2696,-8.2659,-8.2729,-8.2795,-8.2897,-8.2954,-8.3032,-8.3149,-8.3242,-8.3274,-8.3364,-8.3427,-8.3414,-8.3451,-8.3446,-8.3454,-8.3238,-8.3204,-8.3461,-8.346,-8.346,-8.346,-8.346,-8.346,-8.2548,-8.269,-8.27,-8.2865,-8.29,-8.3014,-8.3057,-8.3113,-8.3159,-8.3293,-8.3371,-8.3392,-8.3439,-8.3531,-8.3614,-8.362,-8.3655,-8.3699,-8.3699,-8.3497,-8.3469,-8.3443,-8.3411,-8.3707,-8.3707,-8.3908,-8.391,-8.3911]}]]